Location: Bogis-Bossey
(46.3500°N, 6.1667°E)
Time: 19:12:40
(UTC+00:00)

SPOT 1/Viking Rocket - Pass Details

Date: 17 August 2022
Orbit: 776 x 794 km, 98.4° (Epoch: 01 October)

Event Time Altitude Azimuth Distance (km) Brightness Sun altitude
Exits shadow 19:56:42 11° 160° (SSE) 2,309 5.5 -12.3°
Maximum altitude 20:01:48 80° 74° (ENE) 813 3.5 -13.0°
Drops below altitude 10° 20:07:03 10° 348° (NNW) 2,374 6.8 -13.8°
Sets 20:09:23 0° 348° (NNW) 3,306 7.6 -14.1°
